Flag for U.S.A. Weather past 2 weeks in Chesapeake, Virginia, U.S.A.

Now
73 °F

Scattered clouds.


Feels Like: 77 °F
Forecast: 56 / 72 °F
Wind: 10 mph from Southwest

Location: Chesapeake Municipal Airport

Current Time: Apr 21, 2015 at 3:41:19 PM

Latest Report: Apr 21, 2015 at 3:15 PM


Visibility: 10 mi

Pressure: 29.79 "Hg

Humidity: 33%

Dew point: 43 °F

Location of ChesapeakeLocation

Historic Weather in Chesapeake — Graph

°F

Chesapeake temperature yesterday

Maximum temperature yesterday: 81 °F (at 2:15 PM)
Minimum temperature yesterday: 66 °F (at 4:55 AM)
Average temperature yesterday: 73 °F

Past Weeks' High & Low Weather Summary

 TemperatureHumidityPressure
High86 °F (Apr 10, 2:15 PM)100% (Apr 8, 5:35 AM)30.40 "Hg (Apr 8, 5:35 AM)
Low43 °F (Apr 12, 4:35 AM)25% (Apr 15, 4:35 PM)29.65 "Hg (Apr 20, 5:55 PM)
Average65 °F74%30.11 "Hg
* Reported Apr 6 2:15 PM — Apr 21 2:15 PM, Chesapeake, Weather by CustomWeather, © 2015

Note: Actual official high and low records may vary slightly from our data, if they occured in-between our weather recording intervals... More about our weather records

Advertising

Chesapeake weather history for previous 24 hours

 ConditionsComfort  
Time TempWeatherWind HumidityBarometerVisibility
2:15 PM
Tue, Apr 21
73 °FSunny.7 mph36%29.80 "Hg10 mi
1:55 PM73 °FSunny.8 mph33%29.81 "Hg10 mi
1:35 PM73 °FSunny.7 mph29%29.81 "Hg10 mi
1:15 PM73 °FSunny.7 mph31%29.82 "Hg10 mi
12:55 PM72 °FSunny.6 mph36%29.82 "Hg10 mi
12:35 PM72 °FSunny.8 mph38%29.83 "Hg10 mi
12:15 PM72 °FSunny.7 mph41%29.82 "Hg10 mi
11:55 AM72 °FSunny.5 mph44%29.83 "Hg10 mi
11:35 AM72 °FSunny.9 mph44%29.83 "Hg10 mi
11:15 AM72 °FSunny.8 mph44%29.83 "Hg10 mi
10:55 AM72 °FSunny.12 mph44%29.82 "Hg10 mi
10:15 AM70 °FSunny.12 mph46%29.82 "Hg10 mi
9:55 AM70 °FSunny.10 mph50%29.81 "Hg10 mi
9:35 AM68 °FSunny.13 mph56%29.81 "Hg10 mi
9:15 AM68 °FSunny.13 mph56%29.81 "Hg10 mi
8:55 AM66 °FSunny.12 mph60%29.80 "Hg10 mi
8:35 AM66 °FSunny.12 mph64%29.79 "Hg10 mi
8:15 AM66 °FScattered clouds.9 mph68%29.78 "Hg10 mi
7:55 AM64 °FPartly sunny.12 mph73%29.77 "Hg10 mi
7:35 AM64 °FPartly sunny.7 mph78%29.76 "Hg10 mi
7:15 AM63 °FPassing clouds.7 mph88%29.75 "Hg10 mi
6:55 AM63 °FPassing clouds.8 mph94%29.74 "Hg10 mi
6:35 AM63 °FPassing clouds.9 mph88%29.73 "Hg10 mi
6:15 AM64 °FPassing clouds.10 mph83%29.72 "Hg10 mi
5:55 AM64 °FOvercast.10 mph88%29.71 "Hg10 mi
5:15 AM63 °FClear.5 mph88%29.70 "Hg10 mi
4:55 AM64 °FPassing clouds.7 mph83%29.69 "Hg10 mi
4:35 AM64 °FLight rain. Partly cloudy.8 mph83%29.69 "Hg10 mi
4:15 AM64 °FPartly cloudy.7 mph88%29.69 "Hg10 mi
3:55 AM64 °FRain. Partly cloudy.8 mph78%29.68 "Hg10 mi
3:15 AM72 °FPartly cloudy.12 mph78%29.69 "Hg10 mi
2:55 AM70 °FPassing clouds.9 mph83%29.69 "Hg10 mi
2:15 AM70 °FClear.7 mph83%29.68 "Hg10 mi
1:55 AM70 °FPassing clouds.7 mph83%29.68 "Hg10 mi
1:35 AM70 °FClear.9 mph83%29.68 "Hg10 mi
1:15 AM70 °FPassing clouds.8 mph83%29.69 "Hg10 mi
12:55 AM72 °FOvercast.7 mph78%29.68 "Hg10 mi
12:15 AM72 °FOvercast.9 mph78%29.68 "Hg10 mi
11:15 PM
Mon, Apr 20
73 °FClear.12 mph74%29.68 "Hg10 mi
10:55 PM73 °FPassing clouds.12 mph74%29.68 "Hg10 mi
10:35 PM73 °FPassing clouds.10 mph78%29.69 "Hg10 mi
10:15 PM73 °FLight rain. Passing clouds.9 mph78%29.69 "Hg10 mi
9:55 PM73 °FPassing clouds.9 mph78%29.68 "Hg10 mi
9:35 PM73 °FClear.9 mph78%29.68 "Hg10 mi
9:15 PM73 °FClear.8 mph78%29.67 "Hg10 mi
8:55 PM73 °FClear.8 mph78%29.68 "Hg10 mi
8:15 PM75 °FSunny.7 mph69%29.67 "Hg10 mi
7:55 PM75 °FSunny.7 mph69%29.67 "Hg10 mi
7:35 PM75 °FSunny.7 mph69%29.67 "Hg10 mi
7:15 PM77 °FSunny.7 mph65%29.66 "Hg10 mi
6:55 PM79 °FSunny.8 mph61%29.65 "Hg10 mi
6:35 PM79 °FSunny.9 mph61%29.65 "Hg10 mi
6:15 PM79 °FSunny.9 mph61%29.65 "Hg10 mi
5:55 PM79 °FSunny.12 mph61%29.65 "Hg10 mi
5:15 PM81 °FSunny.13 mph58%29.66 "Hg10 mi
4:55 PM81 °FSunny.13 mph58%29.66 "Hg10 mi
4:35 PM81 °FSunny.13 mph58%29.66 "Hg10 mi
4:15 PM81 °FSunny.15 mph58%29.66 "Hg10 mi
3:55 PM81 °FSunny.12 mph58%29.67 "Hg10 mi
3:35 PM81 °FScattered clouds.17 mph58%29.67 "Hg10 mi
3:15 PM81 °FScattered clouds.16 mph58%29.69 "Hg10 mi
Weather by CustomWeather, © 2015

See weather overviewHow to use our weather pages